Location: Cassagne
(43.1218°N, 0.9901°E)
Time: 09:21:02
(UTC+00:00)

STARLINK-1087 - Pass Details

Date: 17 February 2020
Orbit: 379 x 380 km, 53.0° (Epoch: 04 April)

Event Time Altitude Azimuth Distance (km) Brightness Sun altitude
Exits shadow 03:49:20 - 104° (ESE) 1,920 7.1 -33.7°
Enters shadow 04:48:22 -64° 232° (SW) 11,906 10.4 -23.2°
Maximum altitude 05:23:01 50° 140° (SE) 500 3.6 -16.8°
